Weather History for North Las Vegas, NV

Change the Weather History Date:

Thursday, March 7, 2013

  Actual Average Record
Temperature  
Mean Temperature 54 °F -  
Max Temperature 61 °F 65 °F 85 °F (1960)
Min Temperature 48 °F 45 °F 24 °F (1956)
Degree Days  
Heating Degree Days 10    
Growing Degree Days 4 (Base 50)    
Moisture  
Dew Point 28 °F    
Average Humidity 36    
Maximum Humidity 46    
Minimum Humidity 22    
Precipitation  
Precipitation 0.00 in - - ()
Sea Level Pressure  
Sea Level Pressure 29.88 in    
Wind  
Wind Speed 9 mph (SSW)    
Max Wind Speed 25 mph    
Max Gust Speed 32 mph    
Visibility 10 miles    
Events      
Averages and records for this station are not official NWS values.
T = Trace of Precipitation, MM = Missing Value Source: NWS Daily Summary

Daily Weather History Graph

Daily Weather History Graph

Search for Another Location

Airport:

Trip Planner

Search our weather history database for the weather conditions in past years. The results will help you decide how hot, cold, wet, or windy it might be!

Date:

Astronomy

Mar. 07, 2013 Rise Set
Actual Time 6:02 AM PST 5:41 PM PST
Civil Twilight 5:36 AM PST 6:07 PM PST
Nautical Twilight 5:07 AM PST 6:36 PM PST
Astronomical Twilight 4:37 AM PST 7:06 PM PST
Moon 2:59 AM PST (3/7) 1:39 PM PST (3/7)
Length of Visible Light 12h 30m
Length of Day
11h 38m
Waning Crescent, 19% of the Moon is Illuminated
Mar 7
Waning Crescent
Mar 11
New
Mar 19
First Quarter
Mar 27
Full
Apr 2
Last Quarter

Hourly Weather History & Observations

Time (PST) Temp. Dew Point Humidity Pressure Visibility Wind Dir Wind Speed Gust Speed Precip Events Conditions
12:53 AM 54.0 °F 30.0 °F 40% 29.86 in 10.0 mi SW 25.3 mph 32.2 mph N/A   Clear
1:53 AM 53.1 °F 28.9 °F 40% 29.86 in 10.0 mi SW 10.4 mph 23.0 mph N/A   Clear
2:53 AM 53.1 °F 28.9 °F 40% 29.85 in 10.0 mi South 8.1 mph 17.3 mph N/A   Clear
3:53 AM 52.0 °F 28.0 °F 40% 29.85 in 10.0 mi South 17.3 mph - N/A   Clear
4:53 AM 51.1 °F 28.9 °F 43% 29.87 in 10.0 mi SSW 12.7 mph - N/A   Clear
5:53 AM 48.9 °F 28.0 °F 44% 29.91 in 10.0 mi Calm Calm - N/A   Clear
6:53 AM 50.0 °F 30.0 °F 46% 29.92 in 10.0 mi NNW 5.8 mph - N/A   Clear
7:53 AM 52.0 °F 30.9 °F 45% 29.94 in 10.0 mi Calm Calm - N/A   Clear
8:53 AM 54.0 °F 28.9 °F 38% 29.94 in 10.0 mi Calm Calm - N/A   Clear
9:53 AM 55.9 °F 27.0 °F 33% 29.93 in 10.0 mi Calm Calm - N/A   Clear
10:53 AM 57.9 °F 27.0 °F 31% 29.93 in 10.0 mi Calm Calm - N/A   Clear
11:53 AM 60.1 °F 24.1 °F 25% 29.91 in 10.0 mi Calm Calm - N/A   Clear
12:53 PM 60.1 °F 23.0 °F 24% 29.88 in 10.0 mi South 4.6 mph - N/A   Clear
1:53 PM 60.1 °F 21.0 °F 22% 29.87 in 10.0 mi Calm Calm - N/A   Clear
2:53 PM 61.0 °F 24.1 °F 24% 29.86 in 10.0 mi SSW 4.6 mph - N/A   Clear
3:53 PM 61.0 °F 27.0 °F 27% 29.85 in 10.0 mi South 6.9 mph - N/A   Clear
4:53 PM 61.0 °F 30.0 °F 31% 29.85 in 10.0 mi SW 10.4 mph - N/A   Clear
5:53 PM 60.1 °F 30.0 °F 32% 29.86 in 10.0 mi SSW 9.2 mph - N/A   Overcast
6:53 PM 59.0 °F 28.9 °F 32% 29.87 in 10.0 mi WSW 5.8 mph - N/A   Overcast
7:53 PM 57.9 °F 30.0 °F 35% 29.86 in 10.0 mi SSW 4.6 mph - N/A   Clear
8:53 PM 55.9 °F 30.0 °F 37% 29.86 in 10.0 mi South 4.6 mph - N/A   Scattered Clouds
9:53 PM 55.0 °F 30.9 °F 40% 29.85 in 10.0 mi Calm Calm - N/A   Partly Cloudy
10:53 PM 55.0 °F 32.0 °F 42% 29.83 in 10.0 mi Calm Calm - N/A   Partly Cloudy
11:53 PM 53.1 °F 30.9 °F 43% 29.83 in 10.0 mi Calm Calm - N/A   Clear